Weather History for KXMR - January, 2013

Change the Weather History Date:

Saturday, January 26, 2013

  Actual Average (KCOF) Record (KCOF)
Temperature  
Mean Temperature 58 °F -  
Max Temperature 72 °F 67 °F 78 °F (2004)
Min Temperature 44 °F 54 °F 37 °F (2000)
Degree Days  
Heating Degree Days 7    
Growing Degree Days 8 (Base 50)    
Moisture  
Dew Point 51 °F    
Average Humidity 77    
Maximum Humidity 94    
Minimum Humidity 50    
Precipitation  
Precipitation 0.00 in - - ()
Sea Level Pressure  
Sea Level Pressure 30.23 in    
Wind  
Wind Speed 4 mph (NNW)    
Max Wind Speed 9 mph    
Max Gust Speed -    
Visibility 10 miles    
Events      
Averages and records for this station are not official NWS values.
T = Trace of Precipitation, MM = Missing Value Source: NWS Daily Summary

Daily Weather History Graph

Daily Weather History Graph

Search for Another Location

Airport or City:

Trip Planner

Search our weather history database for the weather conditions in past years. The results will help you decide how hot, cold, wet, or windy it might be!

Date:

Astronomy

Jan. 26, 2013 Rise Set
Actual Time 7:12 AM EST 5:57 PM EST
Civil Twilight 6:47 AM EST 6:22 PM EST
Nautical Twilight 6:19 AM EST 6:50 PM EST
Astronomical Twilight 5:51 AM EST 7:18 PM EST
Moon 5:46 PM EST (1/26) 6:32 AM EST (1/26)
Length of Visible Light 11h 34m
Length of Day
10h 44m
Full, 100% of the Moon is Illuminated
Jan 26
Full
Jan 26
Full
Feb 3
Last Quarter
Feb 10
New
Feb 17
First Quarter

Hourly Weather History & Observations

Time (EST) Temp. Dew Point Humidity Pressure Visibility Wind Dir Wind Speed Gust Speed Precip Events Conditions
12:55 AM 57.9 °F 53.2 °F 84% 30.24 in 10.0 mi WNW 5.8 mph - N/A   Clear
1:55 AM 57.2 °F 49.6 °F 76% 30.24 in 10.0 mi NW 5.8 mph - N/A   Clear
2:55 AM 51.1 °F 47.5 °F 87% 30.22 in 10.0 mi NW 4.6 mph - N/A   Clear
3:55 AM 50.9 °F 48.0 °F 90% 30.22 in 10.0 mi WNW 5.8 mph - N/A   Clear
4:55 AM 49.5 °F 46.4 °F 89% 30.22 in 10.0 mi WNW 6.9 mph - N/A   Clear
5:55 AM 50.0 °F 46.2 °F 87% 30.23 in 10.0 mi Calm Calm - N/A   Clear
6:55 AM 44.6 °F 43.0 °F 94% 30.25 in 10.0 mi Calm Calm - N/A   Clear
7:55 AM 48.9 °F 45.9 °F 89% 30.26 in 10.0 mi Calm Calm - N/A   Clear
8:55 AM 58.8 °F 52.5 °F 80% 30.28 in 10.0 mi WNW 6.9 mph - N/A   Clear
9:55 AM 62.8 °F 53.4 °F 71% 30.29 in 10.0 mi WNW 5.8 mph - N/A   Clear
10:55 AM 66.4 °F 53.1 °F 62% 30.28 in 10.0 mi Variable 4.6 mph - N/A   Clear
11:55 AM 68.9 °F 53.2 °F 57% 30.27 in 10.0 mi Variable 5.8 mph - N/A   Clear
12:55 PM 71.6 °F 51.8 °F 50% 30.24 in 10.0 mi North 6.9 mph - N/A   Clear
1:55 PM 72.1 °F 54.3 °F 53% 30.20 in 10.0 mi NNE 9.2 mph - N/A   Clear
2:55 PM 71.4 °F 54.1 °F 54% 30.19 in 10.0 mi NNE 9.2 mph - N/A   Clear
3:55 PM 70.3 °F 54.3 °F 57% 30.18 in 10.0 mi ENE 8.1 mph - N/A   Clear
4:55 PM 68.7 °F 56.3 °F 64% 30.19 in 10.0 mi ENE 5.8 mph - N/A   Clear
5:55 PM 65.5 °F 56.5 °F 73% 30.19 in 10.0 mi East 3.5 mph - N/A   Clear
6:55 PM 57.6 °F 53.2 °F 85% 30.21 in 10.0 mi Calm Calm - N/A   Clear
7:55 PM 54.9 °F 51.6 °F 89% 30.22 in 8.0 mi Calm Calm - N/A   Clear
8:55 PM 52.5 °F 50.2 °F 92% 30.22 in 10.0 mi Calm Calm - N/A   Clear
9:55 PM 51.1 °F 48.6 °F 91% 30.23 in 10.0 mi Calm Calm - N/A   Clear
10:55 PM 52.2 °F 48.9 °F 89% 30.25 in 10.0 mi Calm Calm - N/A   Clear
11:55 PM 50.7 °F 47.3 °F 88% 30.24 in 9.0 mi Calm Calm - N/A   Clear